Lid_Strength_Index
1 2 2 2 2 2 2 1 1 0 0 1 1 2 0 2 2 3 4 4 4 5
2 2 2 2 1 1 1 1 1 0 1 2 2 1 2 3 4 4 5 5 5 6
2 2 1 1 2 1 1 1 1 2 2 3 2 3 4 4 5 6 6 7 7 7
2 2 1 2 1 1 1 2 3 3 3 3 4 5 5 6 7 7 8 8 7 7
2 2 2 2 1 1 2 3 3 4 5 5 6 7 8 9 8 9 9 8 8 10
2 2 2 2 2 3 4 5 5 5 6 7 8 9 9 10 9 9 10 10 11 11
3 3 4 5 4 5 6 6 6 7 8 9 10 10 10 9 10 10 11 11 11 11
4 5 5 6 7 7 7 8 8 9 10 10 10 9 9 10 10 11 11 11 11 11
5 6 7 7 8 9 9 9 10 10 11 11 11 11 9 9 10 10 10 11 11 12
7 8 8 9 9 9 9 10 11 11 11 12 11 11 10 9 10 11 12 12 12 13
7 8 8 9 9 10 10 11 12 11 11 11 11 11 11 10 12 13 13 12 12 13
8 8 9 10 10 10 11 11 12 11 11 11 11 12 12 11 13 14 15 14 13 12
8 9 10 10 11 11 11 12 11 11 11 11 13 13 13 11 11 12 13 14 14 12
9 9 9 10 10 11 12 12 12 12 11 12 13 14 14 12 10 11 12 13 11 10